| time (UTC) | temp C | wind direction | speed KPH | gust KPH | rain 1hr cm | rain 24hr cm | rain mn cm | humidity % | barometer mb |
| 20260507030041 | 15 | 250 | 14.5 | 20.9 | 0.00 | 0.00 | 0.00 | 28 | 1008.0 |
| 20260507024538 | 16 | 358 | 0.0 | 1.6 | 0.00 | 0.00 | 0.00 | 26 | 1007.5 |
| 20260507023037 | 16 | 357 | 4.8 | 8.0 | 0.00 | 0.00 | 0.00 | 24 | 1007.1 |
| 20260507021538 | 17 | 22 | 4.8 | 8.0 | 0.00 | 0.00 | 0.00 | 22 | 1007.0 |
| 20260507020043 | 18 | 12 | 4.8 | 9.7 | 0.00 | 0.00 | 0.00 | 21 | 1007.0 |
| 20260507014547 | 19 | 322 | 9.7 | 14.5 | 0.00 | 0.00 | 0.00 | 20 | 1007.0 |
| 20260507013047 | 19 | 302 | 8.0 | 16.1 | 0.00 | 0.00 | 0.00 | 20 | 1007.1 |
| 20260507011537 | 20 | 291 | 12.9 | 17.7 | 0.00 | 0.00 | 0.00 | 20 | 1007.1 |
| 20260507010050 | 20 | 286 | 14.5 | 22.5 | 0.00 | 0.00 | 0.00 | 19 | 1007.1 |
| 20260507004536 | 20 | 304 | 24.1 | 32.2 | 0.00 | 0.00 | 0.00 | 18 | 1007.3 |
| 20260507003036 | 20 | 313 | 16.1 | 29.0 | 0.00 | 0.00 | 0.00 | 19 | 1007.5 |
| 20260507001538 | 20 | 309 | 19.3 | 38.6 | 0.00 | 0.00 | 0.00 | 19 | 1007.5 |
| 20260507000037 | 20 | 295 | 20.9 | 32.2 | 0.00 | 0.00 | 0.00 | 19 | 1007.5 |
| 20260506234538 | 20 | 299 | 19.3 | 30.6 | 0.00 | 0.00 | 0.00 | 19 | 1007.6 |
| 20260506233054 | 20 | 314 | 27.4 | 40.2 | 0.00 | 0.00 | 0.00 | 19 | 1007.6 |
| 20260506231538 | 20 | 300 | 14.5 | 35.4 | 0.00 | 0.00 | 0.00 | 20 | 1007.6 |
| 20260506230039 | 20 | 316 | 24.1 | 41.8 | 0.00 | 0.00 | 0.00 | 20 | 1007.8 |
| 20260506224538 | 20 | 296 | 22.5 | 41.8 | 0.00 | 0.00 | 0.00 | 20 | 1007.8 |
| 20260506223037 | 20 | 294 | 22.5 | 40.2 | 0.00 | 0.00 | 0.00 | 20 | 1008.1 |
| 20260506221537 | 19 | 299 | 24.1 | 40.2 | 0.00 | 0.00 | 0.00 | 21 | 1008.5 |
| 20260506220036 | 18 | 341 | 14.5 | 29.0 | 0.00 | 0.00 | 0.00 | 21 | 1008.7 |
| 20260506214537 | 18 | 260 | 11.3 | 30.6 | 0.00 | 0.00 | 0.00 | 21 | 1009.1 |
| 20260506213036 | 18 | 281 | 14.5 | 33.8 | 0.00 | 0.00 | 0.00 | 20 | 1009.4 |
| 20260506211535 | 17 | 235 | 14.5 | 30.6 | 0.00 | 0.00 | 0.00 | 20 | 1009.6 |
| 20260506210038 | 17 | 32 | 19.3 | 30.6 | 0.00 | 0.00 | 0.00 | 21 | 1010.0 |
| 20260506204538 | 17 | 322 | 17.7 | 25.7 | 0.00 | 0.00 | 0.00 | 20 | 1010.3 |
| 20260506203037 | 16 | 267 | 6.4 | 33.8 | 0.00 | 0.00 | 0.00 | 21 | 1010.4 |
| 20260506201543 | 16 | 217 | 16.1 | 27.4 | 0.00 | 0.00 | 0.00 | 21 | 1010.7 |
| 20260506200044 | 15 | 285 | 17.7 | 33.8 | 0.00 | 0.00 | 0.00 | 21 | 1010.9 |
| 20260506194545 | 15 | 223 | 19.3 | 37.0 | 0.00 | 0.00 | 0.00 | 21 | 1011.1 |
| 20260506193037 | 15 | 274 | 19.3 | 30.6 | 0.00 | 0.00 | 0.00 | 23 | 1011.4 |
| 20260506191537 | 14 | 218 | 16.1 | 25.7 | 0.00 | 0.00 | 0.00 | 23 | 1011.6 |
| 20260506190037 | 13 | 176 | 16.1 | 25.7 | 0.00 | 0.00 | 0.00 | 24 | 1011.7 |
| 20260506184537 | 12 | 179 | 12.9 | 22.5 | 0.00 | 0.00 | 0.00 | 25 | 1012.0 |
| 20260506183037 | 12 | 222 | 19.3 | 29.0 | 0.00 | 0.00 | 0.00 | 24 | 1012.3 |
| 20260506181537 | 12 | 275 | 11.3 | 22.5 | 0.00 | 0.00 | 0.00 | 22 | 1012.6 |
| 20260506180041 | 11 | 182 | 12.9 | 30.6 | 0.00 | 0.00 | 0.00 | 23 | 1012.9 |
| 20260506174537 | 11 | 181 | 14.5 | 27.4 | 0.00 | 0.00 | 0.00 | 25 | 1013.2 |
| 20260506173043 | 10 | 185 | 9.7 | 29.0 | 0.00 | 0.00 | 0.00 | 27 | 1013.4 |
| 20260506171548 | 10 | 185 | 12.9 | 25.7 | 0.00 | 0.00 | 0.00 | 28 | 1013.6 |
| 20260506170040 | 10 | 171 | 17.7 | 30.6 | 0.00 | 0.00 | 0.00 | 31 | 1014.0 |
| 20260506164551 | 9 | 218 | 19.3 | 27.4 | 0.00 | 0.00 | 0.00 | 33 | 1014.1 |
| 20260506163041 | 8 | 216 | 12.9 | 27.4 | 0.00 | 0.00 | 0.00 | 37 | 1014.3 |
| 20260506161537 | 7 | 221 | 12.9 | 24.1 | 0.00 | 0.00 | 0.00 | 41 | 1014.6 |
| 20260506160039 | 7 | 175 | 17.7 | 24.1 | 0.00 | 0.00 | 0.00 | 43 | 1014.7 |
| 20260506154548 | 6 | 223 | 9.7 | 19.3 | 0.00 | 0.00 | 0.00 | 45 | 1015.0 |
| 20260506153036 | 5 | 206 | 12.9 | 22.5 | 0.00 | 0.00 | 0.00 | 46 | 1015.3 |
| 20260506151537 | 5 | 206 | 8.0 | 16.1 | 0.00 | 0.00 | 0.00 | 47 | 1015.5 |
| 20260506150104 | 5 | 212 | 9.7 | 14.5 | 0.00 | 0.00 | 0.00 | 47 | 1015.5 |
| 20260506144537 | 4 | 182 | 8.0 | 16.1 | 0.00 | 0.00 | 0.00 | 46 | 1015.5 |
| 20260506143037 | 3 | 180 | 8.0 | 14.5 | 0.00 | 0.00 | 0.00 | 46 | 1015.7 |
| 20260506141537 | 3 | 244 | 4.8 | 9.7 | 0.00 | 0.00 | 0.00 | 45 | 1016.0 |
| 20260506140039 | 2 | 229 | 3.2 | 6.4 | 0.00 | 0.00 | 0.00 | 48 | 1016.1 |
| 20260506134537 | 1 | 229 | 1.6 | 6.4 | 0.00 | 0.00 | 0.00 | 53 | 1016.2 |
| 20260506133037 | 0 | 212 | 4.8 | 6.4 | 0.00 | 0.00 | 0.00 | 58 | 1016.2 |
| 20260506131539 | -1 | 200 | 1.6 | 8.0 | 0.00 | 0.00 | 0.00 | 59 | 1016.1 |
| 20260506130037 | -2 | 205 | 1.6 | 6.4 | 0.00 | 0.00 | 0.00 | 61 | 1016.1 |
| 20260506124540 | -3 | 205 | 1.6 | 6.4 | 0.00 | 0.00 | 0.00 | 62 | 1016.4 |
| 20260506123042 | -3 | 205 | 3.2 | 8.0 | 0.00 | 0.00 | 0.00 | 64 | 1016.6 |
| 20260506121538 | -4 | 205 | 1.6 | 6.4 | 0.00 | 0.00 | 0.00 | 66 | 1016.5 |
| 20260506120104 | -5 | 205 | 4.8 | 8.0 | 0.00 | 0.00 | 0.00 | 67 | 1016.5 |
| 20260506114539 | -5 | 205 | 4.8 | 8.0 | 0.00 | 0.00 | 0.00 | 63 | 1016.6 |
| 20260506113037 | -5 | 205 | 1.6 | 6.4 | 0.00 | 0.00 | 0.00 | 65 | 1016.9 |
| 20260506111539 | -5 | 205 | 0.0 | 6.4 | 0.00 | 0.00 | 0.00 | 67 | 1017.1 |
| 20260506110038 | -5 | 205 | 4.8 | 8.0 | 0.00 | 0.00 | 0.00 | 69 | 1017.3 |
| 20260506104541 | -6 | 205 | 0.0 | 3.2 | 0.00 | 0.00 | 0.00 | 67 | 1017.4 |
| 20260506103037 | -6 | 0 | 0.0 | 3.2 | 0.00 | 0.00 | 0.00 | 64 | 1017.6 |
| 20260506101537 | -5 | 0 | 1.6 | 8.0 | 0.00 | 0.00 | 0.00 | 64 | 1017.6 |
| 20260506100041 | -5 | 205 | 1.6 | 6.4 | 0.00 | 0.00 | 0.00 | 63 | 1017.8 |
| 20260506094540 | -5 | 205 | 1.6 | 3.2 | 0.00 | 0.00 | 0.00 | 65 | 1018.0 |
| 20260506093044 | -5 | 205 | 1.6 | 3.2 | 0.00 | 0.00 | 0.00 | 63 | 1018.1 |
| 20260506091537 | -5 | 205 | 1.6 | 6.4 | 0.00 | 0.00 | 0.00 | 61 | 1018.1 |
| 20260506090040 | -4 | 0 | 3.2 | 8.0 | 0.00 | 0.00 | 0.00 | 60 | 1018.1 |
| 20260506084537 | -4 | 205 | 0.0 | 8.0 | 0.00 | 0.00 | 0.00 | 58 | 1018.2 |
| 20260506083042 | -3 | 205 | 0.0 | 4.8 | 0.00 | 0.00 | 0.00 | 57 | 1018.3 |
| 20260506081540 | -3 | 205 | 1.6 | 6.4 | 0.00 | 0.00 | 0.00 | 59 | 1018.6 |
| 20260506073037 | -4 | 177 | 0.0 | 3.2 | 0.00 | 0.00 | 0.00 | 56 | 1018.8 |
| 20260506071547 | -3 | 0 | 0.0 | 3.2 | 0.00 | 0.00 | 0.00 | 57 | 1018.8 |
| 20260506061538 | -3 | 298 | 1.6 | 3.2 | 0.00 | 0.00 | 0.00 | 52 | 1019.1 |
| 20260506044551 | 0 | 298 | 1.6 | 4.8 | 0.00 | 0.00 | 0.00 | 43 | 1019.3 |
| 20260506043037 | 1 | 298 | 1.6 | 6.4 | 0.00 | 0.00 | 0.00 | 44 | 1019.4 |
| 20260506041547 | 2 | 0 | 3.2 | 12.9 | 0.00 | 0.00 | 0.00 | 44 | 1019.3 |
| 20260506040044 | 1 | 354 | 11.3 | 14.5 | 0.00 | 0.00 | 0.00 | 45 | 1019.4 |
| 20260506034538 | 2 | 5 | 11.3 | 16.1 | 0.00 | 0.00 | 0.00 | 43 | 1019.3 |
| 20260506033038 | 3 | 2 | 9.7 | 12.9 | 0.00 | 0.00 | 0.00 | 42 | 1019.2 |
| 20260506031553 | 2 | 354 | 9.7 | 12.9 | 0.00 | 0.00 | 0.00 | 42 | 1019.3 |